Content
SEND FEEDBACK

Daily
Averages
Monthly
Summary
United States of America

HILLSIDE, NEW JERSEY


Home > North America > United States > New Jersey
Elevation: 40 feet     Latitude: 40 40N     Longitude: 074 14W

WEATHER
 
SELECT A DAY
Number of Records: 189,642;   Date Range: 1/1/95 - 7/29/14
 
SHARE

PRINT THIS DATA

[ ← Previous Day ]
WEATHER ALMANAC - APRIL 11, 2014
[ Next Day → ]
[ °C ]   °F
Weather ElementAverageHighLow
Temperature63.5 °F75 °F (1:51 pm)53.1 °F (4:51 am)
Dewpoint41.6 °F50 °F (9:51 pm)32 °F (1:51 am)
Humidity46.3 %69 % (11:51 pm)27 % (4:51 pm)
Barometer29.98 in30.04 in (10:51 am)29.93 in (3:51 pm)
Wind Speed10.1 mph18.4 mph (5:30 pm)
Wind Gust34.5 mph (5:30 pm)
Weather ElementAverage
Visibility10 mi
Wind DirectionSW (230.4 °)

Weather ElementTotal
Precipitation---
Heating Degree Days1 (Base 65)
Growing Degree Days14.1 (Base 50)
Averaged from 24 records on April 11, 2014
WEATHER CONDITIONS BREAKOUT
WIND DIRECTION BREAKOUT
WEATHER BY HOUR - APRIL 11, 2014
[ °C ]   °F
Local TimeTemperatureDewpointHumidityBarometerVisibilityWind DirectionWind SpeedGust SpeedPrecipitationEventsConditions
1:51 AM55.0 °F32.0 °F42 %29.99 in10.0 miSouth (190°)9.2 mphOvercast
2:51 AM54.0 °F33.1 °F45 %29.97 in10.0 miSouth (180°)5.8 mphMostly Cloudy
3:51 AM54.0 °F35.1 °F49 %29.96 in10.0 miSW (230°)8.1 mphMostly Cloudy
4:51 AM53.1 °F35.1 °F50 %29.96 in10.0 miSW (230°)9.2 mphMostly Cloudy
5:51 AM53.1 °F36.0 °F52 %29.97 in10.0 miSW (230°)9.2 mphMostly Cloudy
6:51 AM55.0 °F37.0 °F51 %29.99 in10.0 miSW (220°)9.2 mph18.4 mphOvercast
7:51 AM55.9 °F37.9 °F51 %30.02 in10.0 miWest (260°)5.8 mphOvercast
8:51 AM57.9 °F39.0 °F49 %30.03 in10.0 miSSW (210°)10.4 mphOvercast
9:51 AM62.6 °F39.2 °F42 %30.02 in10.0 miSW (220°)12.7 mphOvercast
10:51 AM68.0 °F39.0 °F35 %30.04 in10.0 miSW (230°)10.4 mph21.9 mphOvercast
11:51 AM69.1 °F41.0 °F36 %30.01 in10.0 miWSW (240°)10.4 mph18.4 mphOvercast
12:51 PM73.0 °F44.1 °F35 %29.99 in10.0 miWSW (250°)12.7 mph18.4 mphOvercast
1:51 PM75.0 °F44.1 °F33 %29.96 in10.0 miSW (230°)11.5 mph19.6 mphMostly Cloudy
2:51 PM75.0 °F43.0 °F32 %29.94 in10.0 miSSW (210°)11.5 mphOvercast
3:51 PM73.4 °F39.2 °F29 %29.93 in10.0 miSE (140°)9.2 mph20.7 mphOvercast
4:51 PM75.0 °F39.0 °F27 %29.93 in10.0 miSW (220°)16.1 mph27.6 mphOvercast
5:30 PM69.8 °F46.4 °F43 %29.95 in10.0 miNNW (330°)18.4 mph34.5 mphOvercast
5:51 PM69.1 °F45.0 °F42 %29.96 in10.0 miWNW (300°)17.3 mph24.2 mphOvercast
6:51 PM66.0 °F46.9 °F50 %29.96 in10.0 miNW (310°)17.3 mph28.8 mphOvercast
7:51 PM64.0 °F48.0 °F56 %29.99 in10.0 miNNW (330°)8.1 mphOvercast
8:51 PM63.0 °F48.9 °F60 %30.01 in10.0 miNW (310°)9.2 mphMostly Cloudy
9:51 PM62.1 °F50.0 °F65 %30.02 in10.0 miWNW (300°)4.6 mph0.00 inOvercast
10:51 PM61.0 °F50.0 °F67 %30.01 in10.0 miNE (50°)3.5 mph0.00 inRainLight Rain
11:51 PM60.1 °F50.0 °F69 %30.01 in10.0 miESE (110°)3.5 mph0.00 inOvercast
Hourly data recorded from KEWR, located miles away from Hillside, New Jersey







STORIES FROM OUR PARTNERS